Lexington Weather

Lexington, Massachusetts, USA

40°F
3/30/2020 9:18am 
  • Lexington Conditions: Mist, Overcast
  • Temperature: 39.9°F / 4.4°CWarmer 0.5°F than last hour.
  • Dew Point: 39.2°FIncreased 0.5°Fsince last hour.
  • Relative Humidity: 97
  • Wind: Wind from N N 4 mph, 10-min avg: 2 mph, gust: 6 mph
  • Barometer: 29.97 in Steady
  • Visibility: 2 miles
  • Rain Today: 0.02 in
  •   

Regional Weather Roundup
for Boston / Norton, MA

        
000
ASUS41 KBOX 281404
RWRBOX

REGIONAL WEATHER ROUNDUP
NATIONAL WEATHER SERVICE BOSTON/NORTON MA
1000 AM EDT SAT MAR 28 2020

NOTE:  "FAIR" INDICATES FEW OR NO CLOUDS BELOW 12,000 FEET WITH NO 
SIGNIFICANT WEATHER AND/OR OBSTRUCTIONS TO VISIBILITY.

MAZALL-281500-
EASTERN MASSACHUSETTS
  
CITY           SKY/WX    TMP DP  RH WIND       PRES   REMARKS
BOSTON         FAIR      45  20  36 SE5       30.20R                  
BEVERLY        FAIR      48  21  34 VRB3      30.19R                  
LAWRENCE       FAIR      47  22  37 CALM      30.20R                  
BEDFORD        FAIR      48  21  34 CALM      30.18R                  
BLUE HILL        N/A     49  19  30 E6        30.16R                  
NORWOOD        FAIR      50  22  33 CALM      30.18R                  
MARSHFIELD     FAIR      48  27  43 E7        30.19S                  
PLYMOUTH       FAIR      50  27  40 VRB6      30.18S                  
TAUNTON        FAIR      49  24  37 E6        30.18S                  
NEW BEDFORD    FAIR      49  24  37 SE3       30.17S                  
$$

MAZALL-281500-
CAPE COD AND THE ISLANDS
  
CITY           SKY/WX    TMP DP  RH WIND       PRES   REMARKS
FALMOUTH       SUNNY     48  32  53 SE8       30.19R                  
HYANNIS        FAIR      50  31  48 SE8       30.18R                  
CHATHAM        FAIR      50  25  37 SE8       30.21R                  
PROVINCETOWN   FAIR      50  30  46 SE8       30.21R                  
NANTUCKET      FAIR      50  33  52 SE12      30.19R                  
MARTHAS VNYRD  FAIR      52  29  41 SE8       30.19R                  
$$
 
MAZALL-281500-
CENTRAL AND WESTERN MASSACHUSETTS
  
CITY           SKY/WX    TMP DP  RH WIND       PRES   REMARKS
WORCESTER      FAIR      45  16  31 E7        30.15S                  
FITCHBURG      FAIR      47  20  34 CALM      30.17S                  
ORANGE         FAIR      44  27  51 CALM      30.17F                  
SPRINGFIELD    NOT AVBL                                               
WESTFIELD      FAIR      41  26  55 CALM      30.18R                  
NORTH ADAMS    FAIR      44  24  45 E7        30.15R                  
PITTSFIELD     FAIR      42  26  53 NE5       30.12S                  
$$
 
RIZALL-281500-
RHODE ISLAND
  
CITY           SKY/WX    TMP DP  RH WIND       PRES   REMARKS
PROVIDENCE     PTSUNNY   47  22  37 VRB6      30.19R                  
NEWPORT        FAIR      49  22  34 E7        30.17S                  
BLOCK ISLAND   FAIR      45  32  60 E7        30.19R                  
SMITHFIELD     FAIR      48  19  31 VRB6      30.18R                  
WESTERLY       FAIR      50  22  33 E9        30.19R                  
$$
 
CTZALL-281500-
CONNECTICUT
  
CITY           SKY/WX    TMP DP  RH WIND       PRES   REMARKS
BRADLEY INTL   PTSUNNY   43  26  51 NW5       30.19R                  
HARTFORD       FAIR      43  29  57 CALM      30.20R                  
BRIDGEPORT     FAIR      48  28  46 E13       30.16R                  
DANBURY        PTSUNNY   46  27  47 E6        30.15S                  
GROTON         FAIR      47  25  42 E9        30.18R                  
NEW HAVEN      CLOUDY    50  22  33 E6        30.17R                  
CHESTER        FAIR     N/A N/A N/A E5        30.18R                  
MERIDEN        FAIR      46  26  45 N5        30.18R                  
WILLIMANTIC    FAIR      41  29  62 SW3       30.19R                  
OXFORD         PTSUNNY   45  23  42 SE6       30.16R                  
$$

MEZ002-015-021-024-NHZ003-005-008-011-012-014-VTZ005-008-281500-
NORTHERN NEW ENGLAND
  
CITY           SKY/WX    TMP DP  RH WIND       PRES   REMARKS
PORTLAND ME    FAIR      48  20  32 W5        30.17R                  
BANGOR ME      FAIR      42  17  36 NW9       30.14F                  
CONCORD NH     FAIR      43  21  41 N7        30.17S                  
MANCHESTER NH  PTSUNNY   47  20  34 CALM      30.16R                  
NASHUA NH      FAIR      47  22  37 CALM      30.19R                  
PORTSMOUTH NH  PTSUNNY   46  19  33 CALM      30.17R                  
JAFFREY NH     FAIR      45  17  32 CALM      30.14F                  
KEENE NH       FAIR      39  23  52 CALM      30.18F                  
BURLINGTON VT  PTSUNNY   41  20  43 S3        30.15S                  
MT. WASHINGTON PTSUNNY   25   1  36 NW25        N/A  WCI   9          
$$

NYZ052-076-281500-
EASTERN NEW YORK
  
CITY           SKY/WX    TMP DP  RH WIND       PRES   REMARKS
ALBANY         CLOUDY    40  29  64 CALM      30.16S                  
NEW YORK CITY  LGT RAIN  47  38  71 NE12      30.15R                  
$$
 
ANZALL-281500-
MARINE OBSERVATIONS
  
STATION/POSITION TIME  TEMP    WIND        PRES    VSBY  WAVE
                       AIR SEA DIR/SP/G                  HT/PER
                 (UTC) (F)     (DEG/KT/KT) (MB)    (MI)  (FT/S)
BOSTON BUOY      1350   43 43  250/  2/  2 1022.3R         2/10
BUZZARDS BAY     1300           50/  6/  7 1022.9F
NANTUCKET SOUND  1340                        N/A           1
MASS BAY-STELLWA 1304   46 42  250/  2/  2 1020.1R  1 7/8  2/11
ISLE OF SHOALS   1300   39     280/  3/  4 1021.3R
S OF BLOCK IS    1330      44                N/A           3/ 8
$$

......................KEY.........................
  SKY/WX - SKY CONDITION/PRESENT WEATHER
  TMP    - TEMPERATURE IN FAHRENHEIT
  DWPT   - DEWPOINT IN FAHRENHEIT
  RH     - RELATIVE HUMIDITY IN PERCENT
  WIND   - DIRECTION AND SPEED IN MPH
  PRES   - MEAN SEA LEVEL PRESSURE IN INCHES OF HG
  WCI    - WIND CHILL INDEX
  VSB    - VISIBILITY IN MILES
  HX     - HEAT INDEX
  TC     - TEMPERATURE IN CELSIUS
  VRB    - VARIABLE WIND DIRECTION
  N/A    - NOT AVAILABLE
  
      

Other recent Regional Weather Roundups

Mon Mar 30, 9:04am

Mon Mar 30, 8:04am

Mon Mar 30, 7:04am

Mon Mar 30, 6:04am

Mon Mar 30, 5:04am

Mon Mar 30, 4:04am

Mon Mar 30, 3:05am

Mon Mar 30, 2:04am

Mon Mar 30, 1:04am

Mon Mar 30, 12:04am

Sun Mar 29, 11:04pm

Sun Mar 29, 10:05pm

Sun Mar 29, 9:04pm

Sun Mar 29, 8:04pm

Sun Mar 29, 7:04pm

Sun Mar 29, 6:04pm

Sun Mar 29, 5:05pm

Sun Mar 29, 4:04pm

Sun Mar 29, 3:04pm

Sun Mar 29, 2:04pm

Sun Mar 29, 1:05pm

Sun Mar 29, 12:04pm

Sun Mar 29, 11:04am

Sun Mar 29, 10:04am

Sun Mar 29, 9:04am

Sun Mar 29, 8:04am

Sun Mar 29, 7:04am

Sun Mar 29, 6:04am

Sun Mar 29, 5:04am

Sun Mar 29, 4:04am

Sun Mar 29, 3:04am

Sun Mar 29, 2:04am

Sun Mar 29, 1:04am

Sun Mar 29, 12:04am

Sat Mar 28, 11:05pm

Sat Mar 28, 10:04pm

Sat Mar 28, 9:04pm

Sat Mar 28, 8:04pm

Sat Mar 28, 7:04pm

Sat Mar 28, 6:04pm

Sat Mar 28, 5:05pm

Sat Mar 28, 4:04pm

Sat Mar 28, 3:04pm

Sat Mar 28, 2:04pm

Sat Mar 28, 1:05pm

Sat Mar 28, 12:04pm

Sat Mar 28, 11:04am

Sat Mar 28, 9:04am

Sat Mar 28, 8:04am

Sat Mar 28, 7:04am

Sat Mar 28, 6:04am

Sat Mar 28, 5:04am

Sat Mar 28, 4:04am

Sat Mar 28, 3:04am

Sat Mar 28, 2:04am

Sat Mar 28, 1:04am

Sat Mar 28, 12:04am

Fri Mar 27, 11:04pm

Fri Mar 27, 10:04pm

Fri Mar 27, 9:04pm

Fri Mar 27, 8:04pm

Fri Mar 27, 7:05pm

Fri Mar 27, 6:04pm

Fri Mar 27, 5:05pm

Fri Mar 27, 4:05pm

Fri Mar 27, 3:04pm

Fri Mar 27, 2:05pm

Fri Mar 27, 1:04pm

Fri Mar 27, 12:04pm

Fri Mar 27, 11:04am

Fri Mar 27, 10:04am

Meta data:

ID: 4ff88cbb-105a-4af0-b706-95fe43641e01
Link: https://api.weather.gov/products/4ff88cbb-105a-4af0-b706-95fe43641e01